Total_Precipitation_Accumulation
0.03 0.04 0.04 0.04 0.05 0.05 0.04 0.06 0.07 0.08 0.07 0.09 0.15 0.25 0.41 0.56 0.64 0.78 0.94 0.99 1.05 1.25 1.72 2.17 2.31 2.37 2.67 2.93 3.10 3.08 3.28 3.63 3.85 4.21 4.19 4.39 4.84 5.20 5.33 5.42 5.40 5.32 5.24 5.25
0.05 0.05 0.04 0.04 0.04 0.04 0.03 0.05 0.08 0.10 0.11 0.13 0.20 0.34 0.44 0.57 0.67 0.84 1.02 1.08 1.04 1.23 1.55 2.01 2.23 2.54 2.75 2.90 3.17 3.31 3.45 3.91 4.39 4.92 5.42 5.80 6.15 6.15 6.26 6.19 6.08 5.78 5.60 5.52
0.05 0.04 0.02 0.03 0.03 0.03 0.04 0.05 0.07 0.10 0.14 0.19 0.26 0.46 0.57 0.67 0.76 0.85 0.96 1.02 1.12 1.34 1.64 1.84 2.08 2.40 2.64 2.85 3.13 3.32 3.68 4.33 5.15 5.66 6.11 6.67 6.99 6.69 6.41 6.12 6.04 5.96 5.89 5.79
0.05 0.03 0.03 0.03 0.04 0.04 0.06 0.06 0.06 0.09 0.15 0.27 0.31 0.57 0.85 0.94 1.04 0.96 1.04 1.20 1.33 1.47 1.63 1.81 2.00 2.26 2.56 2.90 3.04 3.27 3.92 4.65 5.30 5.86 6.47 7.06 7.35 7.39 7.17 6.61 6.12 5.71 5.43 5.21
0.04 0.03 0.04 0.04 0.05 0.04 0.05 0.05 0.06 0.10 0.16 0.27 0.32 0.58 1.09 1.29 1.35 1.30 1.33 1.38 1.41 1.44 1.56 1.72 1.89 2.11 2.24 2.59 3.09 3.44 4.03 4.72 5.37 6.12 6.87 7.32 7.57 7.56 7.18 6.39 5.62 5.07 4.75 4.46
0.04 0.04 0.05 0.05 0.04 0.05 0.05 0.08 0.11 0.15 0.22 0.37 0.35 0.57 1.19 1.53 1.71 1.66 1.52 1.54 1.52 1.42 1.41 1.45 1.66 1.84 2.15 2.52 2.94 3.42 3.73 4.33 5.02 5.64 6.23 6.46 6.65 6.59 6.17 5.75 5.25 4.83 4.30 3.84
0.07 0.07 0.06 0.05 0.05 0.05 0.06 0.13 0.31 0.46 0.51 0.47 0.35 0.61 1.22 1.53 1.49 1.47 1.46 1.53 1.50 1.33 1.35 1.55 1.83 1.83 2.11 2.42 2.81 3.26 3.66 4.03 4.55 5.08 5.59 5.83 6.01 5.92 5.43 4.99 4.56 4.14 3.64 3.24
0.14 0.12 0.07 0.05 0.06 0.06 0.06 0.13 0.36 0.58 0.61 0.60 0.55 0.93 1.39 1.41 1.28 1.21 1.18 1.22 1.36 1.40 1.44 1.54 1.68 1.77 2.08 2.32 2.59 2.99 3.34 3.70 3.94 4.16 4.54 4.79 4.95 4.83 4.49 4.02 3.54 3.23 2.94 2.62
0.20 0.17 0.08 0.05 0.05 0.05 0.08 0.11 0.19 0.27 0.34 0.61 0.95 1.24 1.61 1.54 1.39 1.27 1.13 1.15 1.27 1.24 1.28 1.42 1.60 1.72 1.93 2.24 2.60 2.85 3.00 3.21 3.41 3.62 3.70 3.69 3.81 3.73 3.49 3.19 2.85 2.55 2.29 2.02
0.17 0.22 0.11 0.06 0.05 0.07 0.08 0.11 0.15 0.27 0.58 0.85 1.10 1.57 1.92 1.99 1.89 1.75 1.41 1.28 1.22 1.26 1.27 1.30 1.45 1.64 1.74 1.82 2.16 2.48 2.54 2.66 2.76 2.86 2.92 2.85 2.91 2.82 2.75 2.58 2.34 2.08 1.92 1.69
0.19 0.24 0.17 0.10 0.10 0.12 0.12 0.14 0.17 0.28 0.41 0.81 1.21 1.80 1.96 2.22 2.31 2.18 1.80 1.62 1.55 1.48 1.40 1.37 1.42 1.50 1.62 1.75 1.92 2.16 2.34 2.35 2.39 2.52 2.51 2.43 2.48 2.45 2.42 2.30 2.13 1.98 1.91 1.76
0.20 0.26 0.26 0.17 0.15 0.12 0.12 0.16 0.25 0.48 0.52 0.57 1.06 1.98 2.22 2.33 2.29 2.04 1.85 1.71 1.62 1.53 1.37 1.33 1.31 1.29 1.37 1.60 1.82 1.99 2.10 2.11 2.16 2.23 2.31 2.40 2.43 2.34 2.21 2.01 1.89 1.77 1.65 1.50
0.16 0.33 0.58 0.59 0.45 0.25 0.18 0.17 0.23 0.32 0.47 0.63 1.14 2.20 2.61 2.52 2.37 2.09 1.97 1.86 1.81 1.71 1.51 1.41 1.30 1.25 1.31 1.46 1.57 1.72 1.92 2.02 2.05 2.03 2.02 2.18 2.25 2.13 1.97 1.82 1.74 1.64 1.50 1.44
0.13 0.31 0.69 1.17 0.91 0.51 0.32 0.23 0.27 0.41 0.67 0.81 1.09 1.62 1.91 2.00 2.08 2.12 2.28 2.29 2.05 1.84 1.64 1.43 1.35 1.30 1.34 1.44 1.47 1.51 1.64 1.81 1.93 2.03 2.18 2.20 2.12 1.99 1.90 1.70 1.52 1.42 1.32 1.35
0.18 0.38 0.41 0.45 0.44 0.44 0.45 0.38 0.34 0.44 0.55 0.86 1.18 1.53 1.85 1.92 1.97 2.03 2.20 2.12 1.87 1.70 1.54 1.41 1.37 1.44 1.44 1.41 1.40 1.43 1.56 1.65 1.88 1.99 1.99 1.94 1.87 1.79 1.77 1.70 1.55 1.39 1.26 1.20
0.22 0.38 0.42 0.48 0.39 0.47 0.46 0.45 0.47 0.55 0.65 0.87 1.21 1.68 1.90 1.91 1.91 1.99 2.12 2.09 1.88 1.58 1.43 1.38 1.33 1.41 1.38 1.35 1.32 1.29 1.38 1.43 1.58 1.72 1.72 1.64 1.61 1.66 1.61 1.59 1.48 1.38 1.28 1.22
0.32 0.50 0.68 0.69 0.44 0.64 0.92 0.71 0.72 0.81 0.84 1.03 1.43 1.64 1.70 1.82 1.86 1.91 2.04 2.13 2.00 1.72 1.60 1.62 1.63 1.61 1.49 1.39 1.32 1.33 1.38 1.42 1.48 1.55 1.49 1.49 1.49 1.46 1.44 1.31 1.25 1.29 1.33 1.25
0.34 0.56 0.71 0.71 0.85 1.33 1.17 0.66 0.73 0.87 0.89 0.94 1.07 1.21 1.38 1.52 1.63 1.79 1.96 2.11 2.10 1.97 1.92 1.92 1.85 1.71 1.56 1.44 1.39 1.39 1.37 1.43 1.51 1.48 1.40 1.34 1.36 1.32 1.29 1.26 1.25 1.26 1.26 1.22
0.24 0.49 0.76 0.96 1.26 1.43 1.15 0.69 0.66 0.98 1.15 0.91 0.92 0.95 1.00 1.04 1.22 1.63 1.79 1.86 1.95 1.94 1.91 1.83 1.74 1.65 1.53 1.41 1.35 1.31 1.31 1.29 1.30 1.27 1.22 1.14 1.17 1.24 1.24 1.22 1.29 1.26 1.17 1.13
0.23 0.40 0.81 1.06 1.43 1.71 1.42 0.68 0.49 0.85 1.56 1.07 0.91 0.97 1.02 1.15 1.42 1.51 1.41 1.41 1.50 1.52 1.55 1.59 1.60 1.50 1.40 1.30 1.21 1.19 1.21 1.18 1.15 1.13 1.12 1.03 1.04 1.11 1.18 1.21 1.24 1.15 1.08 1.05
0.57 0.65 0.87 1.11 1.42 1.62 0.91 0.54 0.69 1.48 1.85 1.23 1.05 1.08 1.21 1.32 1.31 1.09 1.00 1.07 1.18 1.31 1.33 1.34 1.47 1.50 1.32 1.12 1.05 1.11 1.10 1.08 0.97 0.96 1.03 1.03 1.02 1.04 1.05 1.08 1.13 1.08 1.01 0.99
0.75 0.93 1.04 1.21 1.63 1.77 0.80 0.63 1.07 1.31 1.02 0.97 1.00 1.02 1.04 0.98 0.83 0.80 0.83 0.86 0.91 1.09 1.21 1.20 1.32 1.27 1.11 0.99 1.01 1.07 1.04 0.93 0.86 0.94 1.07 1.08 1.05 0.95 0.93 1.07 1.12 1.05 1.00 0.95
0.61 0.79 1.03 1.27 1.52 1.20 0.67 0.66 0.72 0.70 0.75 0.76 0.77 0.71 0.67 0.69 0.65 0.64 0.73 0.80 0.85 0.94 1.05 1.05 1.10 1.08 1.01 0.97 1.03 1.08 1.02 0.88 0.91 1.00 1.07 1.09 1.02 0.99 0.98 1.03 1.04 0.97 0.93 0.86
0.53 0.41 0.58 0.83 0.87 0.64 0.57 0.55 0.53 0.53 0.60 0.60 0.63 0.66 0.58 0.61 0.64 0.64 0.67 0.76 0.85 0.91 0.92 0.93 0.98 0.98 0.95 0.90 0.90 0.92 0.84 0.83 0.94 1.04 1.03 1.03 1.04 1.03 0.96 0.92 0.88 0.85 0.83 0.78
0.52 0.49 0.63 0.77 0.65 0.57 0.55 0.47 0.47 0.52 0.51 0.51 0.54 0.62 0.63 0.62 0.70 0.68 0.70 0.76 0.82 0.87 0.88 0.91 0.98 0.99 0.88 0.82 0.79 0.77 0.79 0.86 0.97 0.98 0.91 0.89 0.92 0.90 0.86 0.76 0.70 0.69 0.64 0.56
0.44 0.55 0.71 0.75 0.61 0.65 0.60 0.44 0.40 0.50 0.54 0.51 0.54 0.64 0.61 0.60 0.69 0.75 0.77 0.75 0.76 0.81 0.83 0.87 0.87 0.88 0.83 0.74 0.71 0.73 0.75 0.76 0.87 0.86 0.81 0.77 0.79 0.78 0.72 0.69 0.64 0.57 0.46 0.43